Weather in Chernorechye

Russia / Samara Oblast     53°09′37″N   50°22′55″E
temp.,
°C
wind,
m/s
gust,
m/s
humid.,
%
clouds,
%
prec.,
mm/h
press.,
hPa
HPBL,
m
14 august, sun
sun1401:00+18n22686 0.0 101917
04:00+17nne22760 0.0 101925
07:00+20n24660 0.0 1020127
10:00+26nne44470 0.0 1019999
13:00+29ne44365 0.0 10182166
16:00+29ene643238 0.0 10182353
19:00+26ne584099 0.0 1018464
22:00+20ne5124565 0.0 1020294
15 august, mon
mon1501:00+16ne31053100 0.0 1020199
04:00+14ne3760100 0.0 1021137
07:00+16ne495260 0.0 1022248
10:00+23ene683256 0.0 10211142
13:00+27ene782241 0.0 10211733
16:00+28ne672175 0.0 10202117
19:00+25ne5930100 0.0 1020489
22:00+21ne5134364 0.0 1021322
16 august, tue
tue1601:00+17ene3105296 0.0 1022179
04:00+15ne37561 0.0 1023109
07:00+18ene49520 0.0 1024217
10:00+25e66330 0.0 10231121
13:00+28e55250 0.0 10232037
16:00+29e55230 0.0 10222275
19:00+26ene463116 0.0 1021179
22:00+20ene35475 0.0 102268
17 august, wed
wed1701:00+17e37585 0.0 1023118
04:00+15e33605 0.0 102341
07:00+18ene3852100 0.0 1023191
10:00+25e5634100 0.0 1022803
13:00+28e5525100 0.0 10211563
16:00+29e442497 0.0 10191741
19:00+26e333185 0.0 101949
22:00+21ene494190 0.0 1019125
18 august, thu
thu1801:00+19ene494669 0.0 1019168
04:00+17e385499 0.0 1019142
07:00+20e495189 0.0 1019243
10:00+27e673283 0.0 1019813
13:00+30ese5426100 0.0 10181557
16:00+32ene4224100 0.0 10172203
19:00+28ene4731100 0.0 1017164
22:00+24ene41038100 0.0 1018268